Location: Krakow
(50.0830°N, 19.9170°E)
Time: 11:55:37
(UTC+02:00)

Tiros 1 - Pass Details

Date: 15 February 2023
Orbit: 627 x 662 km, 48.4° (Epoch: 26 March)

Event Time Altitude Azimuth Distance (km) Brightness Sun altitude
Rises 22:35:24 0° 271° (W) 2,910 - -49.1°
Reaches altitude 10° 22:37:43 10° 269° (W) 2,002 - -49.3°
Maximum altitude 22:42:17 71° 187° (S) 667 - -49.6°
Drops below altitude 10° 22:46:53 10° 103° (ESE) 2,007 - -50.0°
Sets 22:49:13 0° 101° (ESE) 2,918 - -50.1°
